Regional Weather Roundup
Issued by NWS

Current Version | Previous Version | Text Only | Print | Product List | Glossary On
Versions: 1 2 3 4 5 6 7 8 9 10 11 12 13 14 15 16 17 18 19 20 21 22 23 24 25 26 27 28 29 30 31 32 33 34 35 36 37 38 39 40 41 42 43 44 45 46 47 48 49 50
000
ASUS44 KBMX 131110
RWRAL

ALABAMA REGIONAL WEATHER ROUNDUP
NATIONAL WEATHER SERVICE BIRMINGHAM AL
500 AM CST WED DEC 13 2017

NOTE: "FAIR" INDICATES FEW OR NO CLOUDS BELOW 12,000 FEET
WITH NO SIGNIFICANT WEATHER AND/OR OBSTRUCTIONS TO VISIBILITY.

THE REMARK "TC" DENOTES TEMPERATURE IN DEGREES CELSIUS.

ALZ001>011-014-016>018-020-131200-
NORTH ALABAMA

CITY           SKY/WX    TMP DP  RH WIND       PRES   REMARKS
MUSCLE SHOALS  CLOUDY    24  20  84 CALM      30.08F
HUNTSVILLE     CLOUDY    26  19  74 CALM      30.07F
DECATUR        CLOUDY    23  19  85 CALM      30.08F
HALEYVILLE     FAIR      22  19  89 CALM      30.08F
GADSDEN        CLOUDY    23  20  88 CALM      30.09F
$$

ALZ012-013-022-023-030>036-040>044-131200-
WEST CENTRAL ALABAMA

CITY           SKY/WX    TMP DP  RH WIND       PRES   REMARKS
TUSCALOOSA     CLEAR     27  24  89 NE3       30.13S
DEMOPOLIS        N/A     28  27  94 CALM      30.13S
$$

ALZ015-024>026-033>036-041>044-131200-
CENTRAL ALABAMA

CITY           SKY/WX    TMP DP  RH WIND       PRES   REMARKS
BIRMINGHAM     CLEAR     28  21  75 CALM      30.11S
MONTGOMERY     CLEAR     31  19  61 CALM      30.12S
SHELBY CO ARPT PTCLDY    28  21  75 CALM      30.10S
MAXWELL AFB    PTCLDY    30  25  83 CALM        N/A
GREENVILLE     FAIR      31  20  63 CALM      30.10R
SELMA          FAIR      27  25  93 S3        30.12S
PRATTVILLE     FAIR      28  23  83 CALM      30.11S
BESSEMER       FAIR      28  19  69 CALM      30.10S
TALLADEGA      FAIR      27  21  78 CALM      30.10S
PELL CITY      SUNNY     23  21  93 CALM      30.10S
MARION         FAIR      27  26  95 CALM      30.11S
SYLACAUGA      FAIR      25  24  95 CALM      30.10S
$$

ALZ019-021-028-029-037-038-045>048-131200-
EAST CENTRAL ALABAMA

CITY           SKY/WX    TMP DP  RH WIND       PRES   REMARKS
ANNISTON       CLEAR     26  18  71 CALM      30.09R
ALEXANDER CITY CLEAR     28  23  81 CALM      30.09S
AUBURN         CLEAR     29  23  78 NW6       30.09R WCI  23
$$

ALZ051>064-131200-
SOUTHWEST ALABAMA

CITY           SKY/WX    TMP DP  RH WIND       PRES   REMARKS
MOBILE         PTCLDY    35  29  78 N5        30.15S WCI  31
BROOKLEY FIELD CLEAR     37  31  78 NW5       30.17R WCI  33
EVERGREEN      CLEAR     30  27  88 CALM      30.14R
$$

ALZ049-050-065>069-131200-
SOUTHEAST ALABAMA

CITY           SKY/WX    TMP DP  RH WIND       PRES   REMARKS
DOTHAN         CLEAR     33  28  81 MISG      30.13R
OZARK          CLEAR     33  24  70 NW6       30.10R WCI  27
TROY           CLEAR     29  25  85 CALM      30.11R
EUFAULA        FAIR      33  27  78 CALM      30.09R
$$



USA.gov is the U.S. government's official web portal to all federal, state and local government web resources and services.